Flag for Lithuania Weather past 2 weeks in Vilnius, Lithuania

32 °F


Feels Like: 26 °F
Forecast: 30 / 46 °F
Wind: 7 mph from Northeast

Location: Vilnius Airport

Current Time: Oct 7, 2015 at 2:26:52 AM

Latest Report: Oct 7, 2015 at 1:50 AM

Visibility: 10 mi

Pressure: 30.24 "Hg

Humidity: 80%

Dew point: 27 °F

Location of VilniusLocation

Historic Weather in Vilnius — Graph


Vilnius temperature yesterday

Maximum temperature yesterday: 54 °F (at 12:20 AM)
Minimum temperature yesterday: 34 °F (at 11:50 PM)
Average temperature yesterday: 44 °F

Past Weeks' High & Low Weather Summary

High77 °F (Sep 24, 3:50 PM)100% (Sep 22, 2:50 AM)30.63 "Hg (Sep 22, 2:50 AM)
Low32 °F (Oct 7, 1:20 AM)50% (Oct 6, 2:20 PM)29.92 "Hg (Sep 22, 1:20 AM)
Average53 °F84%30.16 "Hg
* Reported Sep 22 1:20 AM — Oct 7 1:20 AM, Vilnius, Weather by CustomWeather, © 2015

Note: Actual official high and low records may vary slightly from our data, if they occured in-between our weather recording intervals... More about our weather records


Vilnius weather history for previous 24 hours

Time TempWeatherWind HumidityBarometerVisibility
1:20 AM
Wed, Oct 7
32 °FClear.6 mph80%30.24 "Hg10 mi
12:20 AM34 °FClear.7 mph70%30.21 "Hg10 mi
11:50 PM
Tue, Oct 6
34 °FClear.8 mph70%30.21 "Hg10 mi
11:20 PM36 °FClear.9 mph70%30.21 "Hg10 mi
10:50 PM36 °FClear.9 mph65%30.18 "Hg10 mi
10:20 PM36 °FClear.8 mph65%30.18 "Hg10 mi
9:50 PM37 °FClear.8 mph60%30.18 "Hg10 mi
9:20 PM37 °FClear.8 mph65%30.18 "Hg10 mi
8:50 PM39 °FClear.9 mph61%30.15 "Hg10 mi
8:20 PM39 °FClear.9 mph56%30.15 "Hg10 mi
7:50 PM39 °FClear.8 mph61%30.15 "Hg10 mi
7:20 PM41 °FSunny.8 mph61%30.15 "Hg10 mi
6:50 PM41 °FSunny.10 mph61%30.12 "Hg10 mi
6:20 PM43 °FSunny.14 mph57%30.12 "Hg10 mi
5:50 PM45 °FSunny.13 mph53%30.12 "Hg10 mi
5:20 PM46 °FSunny.13 mph53%30.12 "Hg10 mi
4:50 PM48 °FSunny.12 mph50%30.09 "Hg10 mi
4:20 PM48 °FSunny.14 mph50%30.09 "Hg10 mi
3:50 PM48 °FSunny.13 mph54%30.09 "Hg10 mi
3:20 PM48 °FSunny.13 mph50%30.09 "Hg10 mi
2:50 PM48 °FPassing clouds.13 mph54%30.09 "HgN/A
2:20 PM48 °FPassing clouds.12 mph50%30.09 "HgN/A
1:50 PM48 °FSunny.13 mph58%30.09 "Hg10 mi
1:20 PM48 °FPassing clouds.12 mph62%30.09 "HgN/A
12:50 PM46 °FPassing clouds.14 mph66%30.09 "HgN/A
12:20 PM48 °FPassing clouds.14 mph62%30.09 "HgN/A
11:50 AM46 °FPassing clouds.15 mph66%30.09 "HgN/A
11:20 AM46 °FPassing clouds.13 mph66%30.09 "HgN/A
10:50 AM45 °FScattered clouds.13 mph71%30.07 "HgN/A
10:20 AM45 °FScattered clouds.12 mph76%30.07 "HgN/A
9:50 AM43 °FScattered clouds.10 mph81%30.07 "HgN/A
9:20 AM41 °FPartly sunny.14 mph87%30.07 "Hg5 mi
8:50 AM41 °FPartly sunny.12 mph87%30.07 "Hg5 mi
8:20 AM41 °FPassing clouds.14 mph93%30.07 "Hg4 mi
7:20 AM41 °FPassing clouds.8 mph93%30.04 "Hg4 mi
6:50 AM41 °FPartly cloudy.10 mph93%30.04 "Hg4 mi
6:20 AM43 °FClear.9 mph87%30.04 "Hg4 mi
5:50 AM43 °FClear.10 mph87%30.04 "Hg4 mi
5:20 AM45 °FClear.8 mph87%30.01 "Hg4 mi
4:50 AM45 °FPartly cloudy.6 mph87%30.01 "Hg4 mi
4:20 AM46 °FPartly cloudy.9 mph87%30.01 "Hg4 mi
3:50 AM48 °FPartly cloudy.7 mph87%30.01 "Hg4 mi
3:20 AM48 °FMostly cloudy.12 mph94%30.01 "Hg4 mi
2:50 AM50 °FMostly cloudy.9 mph88%30.01 "Hg4 mi
2:20 AM50 °FLight rain. Mostly cloudy.9 mph94%29.98 "Hg4 mi
Weather by CustomWeather, © 2015

See weather overviewHow to use our weather pages